AD8AK Weather Reports


time (UTC)temp
C
wind
direction
speed
KPH
gust
KPH
rain 1hr
cm
rain 24hr
cm
rain mn
cm
humidity
%
barometer
mb
20260503233806 11 216 3.2 4.8 0.00 0.00 0.00 63 1012.4
20260503233301 11 244 9.7 11.3 0.00 0.00 0.00 62 1012.3
20260503232758 11 223 6.4 9.7 0.00 0.00 0.00 62 1012.3
20260503232256 11 214 9.7 14.5 0.00 0.00 0.00 61 1012.3
20260503231754 11 258 6.4 14.5 0.00 0.00 0.00 61 1012.2
20260503231250 11 233 8.0 16.1 0.00 0.00 0.00 61 1012.3
20260503230746 11 240 6.4 9.7 0.00 0.00 0.00 60 1012.5
20260503230244 11 228 12.9 16.1 0.00 0.00 0.00 59 1012.5
20260503225741 11 239 8.0 24.1 0.00 0.00 0.00 60 1012.5
20260503225241 12 280 12.9 16.1 0.00 0.00 0.00 60 1012.5
20260503224738 12 201 9.7 14.5 0.00 0.00 0.00 60 1012.6
20260503224236 12 225 9.7 11.3 0.00 0.00 0.00 59 1012.8
20260503223733 12 289 8.0 12.9 0.00 0.00 0.00 58 1012.7
20260503223231 12 291 9.7 12.9 0.00 0.00 0.00 57 1012.6
20260503222727 12 281 9.7 12.9 0.00 0.00 0.00 60 1012.4
20260503222225 12 274 8.0 20.9 0.00 0.00 0.00 58 1012.5
20260503221723 13 260 4.8 20.9 0.00 0.00 0.00 59 1012.4
20260503221221 13 217 12.9 16.1 0.00 0.00 0.00 55 1012.2
20260503220717 15 312 11.3 38.6 0.00 0.00 0.00 47 1012.1
20260503220214 15 286 8.0 17.7 0.00 0.00 0.00 39 1012.0
20260503215710 15 241 8.0 20.9 0.00 0.00 0.00 38 1012.0
20260503215208 15 234 3.2 12.9 0.00 0.00 0.00 38 1012.0
20260503214706 15 327 8.0 17.7 0.00 0.00 0.00 37 1012.1
20260503214202 15 219 6.4 11.3 0.00 0.00 0.00 38 1012.3
20260503213701 15 143 8.0 12.9 0.00 0.00 0.00 38 1012.2
20260503213157 15 266 8.0 14.5 0.00 0.00 0.00 36 1012.2
20260503212654 16 270 14.5 16.1 0.00 0.00 0.00 37 1012.1
20260503212152 15 251 6.4 16.1 0.00 0.00 0.00 38 1012.1
20260503211650 15 335 9.7 11.3 0.00 0.00 0.00 38 1012.0
20260503211145 15 295 4.8 12.9 0.00 0.00 0.00 38 1012.3
20260503210641 15 247 16.1 20.9 0.00 0.00 0.00 37 1012.4
20260503210138 15 243 4.8 11.3 0.00 0.00 0.00 38 1012.3
20260503205634 15 267 8.0 12.9 0.00 0.00 0.00 37 1012.3
20260503205130 15 241 6.4 24.1 0.00 0.00 0.00 38 1012.4
20260503204627 15 235 14.5 22.5 0.00 0.00 0.00 36 1012.4
20260503204125 15 225 12.9 20.9 0.00 0.00 0.00 36 1012.4
20260503203621 16 248 6.4 22.5 0.00 0.00 0.00 36 1012.6
20260503203119 16 194 9.7 11.3 0.00 0.00 0.00 36 1012.5
20260503202616 16 228 14.5 20.9 0.00 0.00 0.00 36 1012.6
20260503202114 16 221 9.7 17.7 0.00 0.00 0.00 37 1012.6
20260503201612 16 346 6.4 17.7 0.00 0.00 0.00 36 1012.7
20260503201109 16 315 6.4 20.9 0.00 0.00 0.00 36 1012.9
20260503200605 16 253 6.4 12.9 0.00 0.00 0.00 36 1013.0
20260503195559 16 248 6.4 11.3 0.00 0.00 0.00 37 1012.9
20260503195056 16 244 12.9 17.7 0.00 0.00 0.00 37 1013.3
20260503194553 16 256 12.9 17.7 0.00 0.00 0.00 34 1013.1
20260503194053 16 180 9.7 14.5 0.00 0.00 0.00 36 1013.5
20260503193550 16 226 6.4 12.9 0.00 0.00 0.00 37 1013.2
20260503193045 16 258 9.7 12.9 0.00 0.00 0.00 37 1013.3
20260503192541 16 255 14.5 20.9 0.00 0.00 0.00 35 1013.3
20260503192037 16 234 11.3 16.1 0.00 0.00 0.00 35 1013.3
20260503191534 16 222 6.4 12.9 0.00 0.00 0.00 38 1013.5
20260503191031 16 255 11.3 20.9 0.00 0.00 0.00 35 1013.5
20260503190528 16 232 14.5 22.5 0.00 0.00 0.00 36 1013.7
20260503190025 16 246 14.5 16.1 0.00 0.00 0.00 34 1013.8
20260503185521 15 223 11.3 14.5 0.00 0.00 0.00 36 1013.8
20260503185020 16 252 11.3 20.9 0.00 0.00 0.00 36 1013.9
20260503184517 16 281 9.7 12.9 0.00 0.00 0.00 37 1014.0
20260503184013 16 272 4.8 22.5 0.00 0.00 0.00 37 1014.1
20260503183510 16 228 11.3 14.5 0.00 0.00 0.00 37 1014.4
20260503183007 16 232 11.3 12.9 0.00 0.00 0.00 35 1014.1
20260503182506 16 234 9.7 14.5 0.00 0.00 0.00 37 1014.2
20260503182004 16 235 6.4 17.7 0.00 0.00 0.00 37 1014.2
20260503181500 16 221 11.3 16.1 0.00 0.00 0.00 36 1014.3
20260503180956 15 283 6.4 6.4 0.00 0.00 0.00 37 1014.4
20260503180454 16 222 11.3 17.7 0.00 0.00 0.00 35 1014.5
20260503175951 16 241 9.7 16.1 0.00 0.00 0.00 36 1014.4
20260503175449 16 216 11.3 12.9 0.00 0.00 0.00 34 1014.5
20260503174944 16 237 12.9 17.7 0.00 0.00 0.00 34 1014.7
20260503174443 15 221 9.7 16.1 0.00 0.00 0.00 34 1014.4
20260503173944 15 275 3.2 12.9 0.00 0.00 0.00 36 1014.8
20260503173440 16 255 9.7 12.9 0.00 0.00 0.00 35 1014.8
20260503172937 15 217 11.3 12.9 0.00 0.00 0.00 35 1014.7
20260503172434 15 240 8.0 17.7 0.00 0.00 0.00 36 1014.8
20260503171930 16 235 6.4 11.3 0.00 0.00 0.00 35 1014.8
20260503171427 16 274 12.9 17.7 0.00 0.00 0.00 33 1014.7
20260503170925 15 264 11.3 17.7 0.00 0.00 0.00 36 1014.9
20260503170421 15 285 12.9 14.5 0.00 0.00 0.00 36 1014.9
20260503110527 1 203 0.0 0.0 0.00 0.00 0.00 83 1016.5
20260503090414 0 266 0.0 0.0 0.00 0.00 0.00 89 1016.6
20260503081340 0 270 0.0 0.0 0.00 0.00 0.00 89 1016.7
20260503080837 0 270 0.0 0.0 0.00 0.00 0.00 89 1016.4
20260503080334 0 270 0.0 0.0 0.00 0.00 0.00 89 1016.5
20260503072811 0 270 0.0 0.0 0.00 0.00 0.00 88 1016.5
20260503072308 0 276 0.0 0.0 0.00 0.00 0.00 88 1016.8
20260503071804 0 276 0.0 0.0 0.00 0.00 0.00 88 1016.6
20260503071301 0 276 0.0 0.0 0.00 0.00 0.00 88 1016.7
20260503070757 0 276 0.0 0.0 0.00 0.00 0.00 88 1016.6
20260503070255 0 276 0.0 0.0 0.00 0.00 0.00 87 1016.7
20260503060220 1 276 0.0 0.0 0.00 0.00 0.00 84 1016.7
20260503054707 1 276 0.0 0.0 0.00 0.00 0.00 83 1016.8
20260503054205 1 276 0.0 0.0 0.00 0.00 0.00 83 1017.0
20260503053703 1 276 0.0 0.0 0.00 0.00 0.00 82 1016.9
20260503053201 1 276 0.0 0.0 0.00 0.00 0.00 82 1016.7
20260503052657 1 276 0.0 0.0 0.00 0.00 0.00 82 1016.8
20260503052153 1 276 0.0 0.0 0.00 0.00 0.00 82 1017.0
20260503051649 1 276 0.0 0.0 0.00 0.00 0.00 81 1017.0
20260503051147 1 276 0.0 0.0 0.00 0.00 0.00 81 1017.0
20260503050643 1 276 0.0 0.0 0.00 0.00 0.00 81 1017.0
20260503050140 1 276 0.0 0.0 0.00 0.00 0.00 81 1017.0
20260503045637 1 276 0.0 0.0 0.00 0.00 0.00 80 1017.0
20260503045134 1 276 0.0 0.0 0.00 0.00 0.00 79 1016.9
20260503044631 1 276 0.0 0.0 0.00 0.00 0.00 79 1016.9
20260503044129 2 276 0.0 0.0 0.00 0.00 0.00 78 1017.2
20260503043625 2 276 0.0 0.0 0.00 0.00 0.00 77 1017.0
20260503043122 2 276 0.0 0.0 0.00 0.00 0.00 77 1016.9
20260503042619 2 276 0.0 0.0 0.00 0.00 0.00 76 1016.8
20260503042114 2 276 0.0 0.0 0.00 0.00 0.00 76 1016.8
20260503041611 2 276 0.0 0.0 0.00 0.00 0.00 76 1017.1
20260503041109 2 276 0.0 0.0 0.00 0.00 0.00 74 1016.9
20260503040606 2 276 0.0 0.0 0.00 0.00 0.00 73 1016.9
20260503040103 2 276 0.0 0.0 0.00 0.00 0.00 73 1017.1
20260503035600 3 276 0.0 0.0 0.00 0.00 0.00 73 1017.0
20260503035058 3 276 0.0 0.0 0.00 0.00 0.00 73 1017.0
20260503034555 3 276 0.0 0.0 0.00 0.00 0.00 72 1017.0
20260503034052 3 276 0.0 0.0 0.00 0.00 0.00 72 1017.1
20260503033549 3 276 0.0 0.0 0.00 0.00 0.00 71 1017.0
20260503033047 3 276 0.0 0.0 0.00 0.00 0.00 71 1017.1
20260503032545 3 276 0.0 0.0 0.00 0.00 0.00 70 1017.0
20260503032043 3 276 0.0 0.0 0.00 0.00 0.00 70 1016.9
20260503031540 3 276 0.0 0.0 0.00 0.00 0.00 70 1017.0
20260503031037 4 276 0.0 0.0 0.00 0.00 0.00 70 1017.1
20260503030533 4 276 0.0 0.0 0.00 0.00 0.00 69 1017.1
20260503030031 4 276 0.0 0.0 0.00 0.00 0.00 69 1017.0
20260503025527 4 276 0.0 0.0 0.00 0.00 0.00 68 1017.1
20260503025025 4 276 0.0 0.0 0.00 0.00 0.00 68 1017.3
20260503024521 5 276 0.0 0.0 0.00 0.00 0.00 68 1017.3
20260503024018 5 276 0.0 0.0 0.00 0.00 0.00 67 1017.1
20260503023515 5 276 0.0 0.0 0.00 0.00 0.00 67 1017.2
20260503023013 5 276 0.0 0.0 0.00 0.00 0.00 67 1017.2
20260503022508 5 277 0.0 0.0 0.00 0.00 0.00 66 1017.3
20260503022003 5 277 0.0 0.0 0.00 0.00 0.00 66 1017.3
20260503021500 5 276 0.0 0.0 0.00 0.00 0.00 65 1017.3
20260503020957 5 277 0.0 0.0 0.00 0.00 0.00 66 1017.0
20260503020454 5 276 0.0 0.0 0.00 0.00 0.00 65 1017.1
20260503015951 5 277 0.0 0.0 0.00 0.00 0.00 65 1017.2
20260503015448 5 277 0.0 0.0 0.00 0.00 0.00 64 1017.2
20260503014944 5 277 0.0 0.0 0.00 0.00 0.00 64 1017.0
20260503014441 5 277 0.0 0.0 0.00 0.00 0.00 64 1017.2
20260503013939 5 277 0.0 0.0 0.00 0.00 0.00 64 1017.1
20260503013436 5 277 0.0 0.0 0.00 0.00 0.00 63 1017.2
20260503012933 5 277 0.0 0.0 0.00 0.00 0.00 63 1017.1
20260503012431 5 277 0.0 0.0 0.00 0.00 0.00 63 1016.9
20260503011927 6 277 0.0 0.0 0.00 0.00 0.00 62 1016.9
20260503011424 6 277 0.0 0.0 0.00 0.00 0.00 60 1017.0
20260503010921 6 277 0.0 0.0 0.00 0.00 0.00 60 1017.1
20260503010418 6 277 0.0 0.0 0.00 0.00 0.00 59 1016.8
20260503005915 6 277 0.0 0.0 0.00 0.00 0.00 58 1017.2
20260503005412 6 277 0.0 0.0 0.00 0.00 0.00 57 1017.0
20260503004908 6 277 0.0 0.0 0.00 0.00 0.00 57 1017.0
20260503004405 6 277 0.0 0.0 0.00 0.00 0.00 55 1017.0
20260503003903 6 279 0.0 0.0 0.00 0.00 0.00 54 1016.9
20260503003359 7 295 0.0 0.0 0.00 0.00 0.00 52 1017.0
20260503002857 7 297 0.0 0.0 0.00 0.00 0.00 51 1016.9
20260503002354 7 295 0.0 0.0 0.00 0.00 0.00 50 1016.9
20260503001850 7 296 0.0 0.0 0.00 0.00 0.00 51 1016.9
20260503001346 7 296 0.0 0.0 0.00 0.00 0.00 50 1016.7
20260503000844 7 302 0.0 0.0 0.00 0.00 0.00 49 1016.8
20260503000341 7 289 0.0 0.0 0.00 0.00 0.00 47 1016.7
20260502235838 8 292 0.0 0.0 0.00 0.00 0.00 48 1016.7
20260502235335 8 297 1.6 3.2 0.00 0.00 0.00 46 1016.8
20260502234832 8 333 3.2 3.2 0.00 0.00 0.00 46 1016.9
20260502234329 8 289 0.0 1.6 0.00 0.00 0.00 47 1016.8